BEIDOU-2 IGSO-5

Last updated on Thu Jul 03 2025 00:02:45 GMT+0000 (Coordinated Universal Time)

1 37948U 11073A 25183.58084995 -.00000214 00000+0 00000+0 0 9996 2 37948 48.3142 275.8661 0108816 220.2497 89.3076 1.00285195 49625
UTC large
Height (km)
Speed (km/s)
/
Latitude / Longitude
Inclination (degrees)
Orbital Period (minutes)
Azimuth
Elevation
Range (km)
Doppler Factor

Next 0 passes for location: London (51.5072 / 0.1276)

Sorry there are no passes over London.